Regional Weather Roundup
Issued by NWS

Home | Current Version | Previous Version | Graphics & Text | Print | Product List | Glossary On
Versions: 1 2 3 4 5 6 7 8 9 10 11 12 13 14 15 16 17 18 19 20 21 22 23 24 25 26 27 28 29 30 31 32 33 34 35 36 37 38 39 40 41 42 43 44 45 46 47 48 49 50
000
ASUS43 KOAX 300502
RWRNE

WEATHER ROUNDUP FOR NEBRASKA
NATIONAL WEATHER SERVICE OMAHA NE
1200 AM CDT TUE MAY 30 2017

NOTES: SATELLITE DATA IS BEING USED TO AUGMENT CLOUD COVER ABOVE
       12000 FEET.
       "FAIR" INDICATES FEW OR NO CLOUDS BELOW 12,000 FEET WITH NO
       SIGNIFICANT WEATHER AND/OR OBSTRUCTIONS TO VISIBILITY.

  * THESE STATIONS DO NOT REPORT WEATHER SUCH AS RAIN...SNOW OR FOG.

NEZ001>004-019>022-054>056-300600-
NEBRASKA PANHANDLE

CITY           SKY/WX    TMP DP  RH WIND       PRES   REMARKS
SCOTTSBLUFF    CLEAR     51  37  58 N3        30.17S
ALLIANCE       CLEAR     48  37  65 N3        30.15R
CHADRON        CLEAR     45  41  86 W6        30.15R
GORDON         FAIR      43  36  76 W3        30.14S
SIDNEY         CLEAR     45  37  73 NW7       30.20R
$$

NEZ057>060-069>072-079>082-300600-
SOUTHWEST NEBRASKA

CITY           SKY/WX    TMP DP  RH WIND       PRES   REMARKS
NORTH PLATTE   CLEAR     46  40  79 CALM      30.12S
IMPERIAL       MOCLDY    56  41  57 SW10      30.15R
LEXINGTON      CLEAR     53  43  70 CALM      30.11S
MCCOOK         PTCLDY    56  42  59 CALM      30.12R
OGALLALA       CLEAR     50  40  68 W5        30.15S
$$

NEZ005>010-023>029-035>040-094-300600-
NORTH CENTRAL NEBRASKA

CITY           SKY/WX    TMP DP  RH WIND       PRES   REMARKS
VALENTINE      CLEAR     50  38  63 W8        30.09S
AINSWORTH      CLEAR     50  38  64 W6        30.09S
BROKEN BOW     CLEAR     47  38  71 CALM      30.10R
O`NEILL        CLEAR     53  38  57 W5        30.06S
ORD            CLEAR     47  39  74 CALM      30.07S
THEDFORD       CLEAR     49  39  67 SW6       30.12S
$$

NEZ041-046>049-061>064-073>077-083>087-300600-
SOUTH CENTRAL NEBRASKA

CITY           SKY/WX    TMP DP  RH WIND       PRES   REMARKS
GRAND ISLAND   CLEAR     53  43  68 CALM      30.08S
AURORA         CLEAR     54  39  57 CALM      30.08R
HASTINGS       CLEAR     57  42  57 CALM      30.09S
HEBRON         CLEAR     55  45  68 CALM      30.08S
HOLDREGE       CLEAR     55  39  56 CALM      30.10S
KEARNEY *      CLEAR     57  37  47 CALM      30.10S
YORK           CLEAR     55  39  54 CALM      30.07S
$$

NEZ011>018-030>034-042>045-300600-
NORTHEAST NEBRASKA

CITY           SKY/WX    TMP DP  RH WIND       PRES   REMARKS
NORFOLK        CLEAR     45  42  89 SW5       30.04R
ALBION         CLEAR     48  39  71 CALM      30.06S
BLAIR          CLEAR     58  42  55 CALM      30.04R
FREMONT        CLEAR     56  43  63 CALM      30.04S
TEKAMAH        MOCLDY    53  41  63 W3        30.02F
WAYNE          MOCLDY    50  43  76 S3        30.03S
$$

NEZ050>053-065>068-078-088>093-300600-
SOUTHEAST NEBRASKA

CITY           SKY/WX    TMP DP  RH WIND       PRES   REMARKS
LINCOLN        CLEAR     57  42  57 CALM      30.06S
OMAHA EPPLEY   CLEAR     58  45  62 CALM      30.03S
BEATRICE       CLEAR     56  43  60 CALM      30.06S
NEBRASKA CITY  CLEAR     63  35  35 N5        30.05R
PLATTSMOUTH    CLEAR     60  41  49 CALM      30.04S
$$

NEZ044-045-051>053-067-300600-
OMAHA AREA

CITY           SKY/WX    TMP DP  RH WIND       PRES   REMARKS
OMAHA EPPLEY   CLEAR     58  45  62 CALM      30.03S
BLAIR          CLEAR     58  42  55 CALM      30.04R
FREMONT        CLEAR     56  43  63 CALM      30.04S
MILLARD        CLEAR     56  48  72 CALM      30.04R
OFFUTT AFB     CLEAR     55  45  69 CALM      30.03S
PLATTSMOUTH    CLEAR     60  41  49 CALM      30.04S
WAHOO          FAIR      56  41  56 SW5       30.04S
$$




USA.gov is the U.S. government's official web portal to all federal, state and local government web resources and services.